Temp
63 64 64 64 65 65 65 66 66 66 65 66 66 66 66 66 64 56 52 59 63 72 73 68 67 65 64 59 61 56 47 43 47 48 52 57 58 62 64 62 63 63 61 65 64
63 64 64 64 64 64 65 65 65 65 65 65 65 65 65 64 54 52 62 69 71 72 65 61 60 63 57 56 57 53 45 48 55 54 54 58 56 60 60 60 61 62 65 63 61
63 63 64 64 64 64 64 64 64 65 64 64 64 64 64 61 52 51 68 69 71 71 66 63 63 61 55 55 54 52 48 53 58 59 58 57 58 60 58 57 62 64 66 64 59
63 63 63 63 63 63 64 63 64 64 64 64 63 63 62 57 40 60 70 71 71 69 67 62 59 56 52 52 56 49 56 56 59 60 58 56 59 58 59 62 67 66 65 63 62
63 63 63 63 63 63 63 63 63 63 63 64 63 62 56 49 49 63 68 67 68 65 62 60 56 55 51 53 54 50 54 58 60 60 58 58 56 57 59 65 65 65 65 64 62
63 63 62 62 62 62 62 62 63 63 63 64 63 61 51 42 60 64 63 62 62 61 61 61 58 59 56 55 55 56 57 58 58 60 58 57 58 56 59 61 63 63 62 62 62
63 62 62 62 62 62 62 63 63 62 62 62 62 57 50 49 60 61 63 62 62 62 59 61 62 63 61 56 58 56 51 55 56 57 58 57 56 55 62 57 61 59 57 59 60
63 62 61 61 61 61 62 62 62 62 61 62 62 52 45 60 63 61 60 61 61 63 62 63 64 63 61 61 57 51 48 43 52 54 57 56 50 58 60 56 58 57 53 55 56
62 62 61 60 60 60 60 61 61 61 62 61 54 50 45 63 55 58 60 55 57 60 62 66 61 59 60 53 50 51 45 42 48 55 53 51 47 57 56 58 56 50 51 53 54
62 61 61 60 60 59 59 60 60 59 57 58 56 45 48 48 55 58 59 59 56 55 56 56 55 52 49 45 41 44 45 41 43 50 49 48 49 58 55 54 51 51 49 51 53
61 61 60 59 59 59 57 53 46 44 49 45 46 46 51 55 59 55 59 57 55 51 47 53 48 45 47 53 48 47 43 43 46 51 47 47 47 54 55 54 50 50 51 50 53
61 60 59 58 58 58 55 48 50 52 41 49 51 49 55 55 48 53 61 50 49 42 51 49 45 53 52 51 51 49 48 42 48 50 47 48 48 53 52 54 51 51 50 51 52
60 60 58 57 58 56 51 52 56 57 43 44 49 49 51 54 47 48 56 52 46 44 47 47 50 57 54 48 49 47 46 42 44 48 48 45 44 46 49 49 51 51 51 51 52
60 59 57 57 53 53 50 55 56 56 35 38 42 47 52 51 45 57 60 55 48 44 49 48 53 53 52 47 49 42 49 51 47 43 37 44 35 42 46 47 48 48 49 50 50
59 59 58 57 53 50 54 55 55 50 22 41 44 56 52 46 48 49 60 56 44 45 50 46 48 47 49 51 51 46 53 51 49 41 35 37 36 41 42 44 47 47 48 49 49
58 59 58 54 54 54 56 55 51 34 24 36 45 43 43 46 48 51 52 55 55 49 48 47 53 52 50 53 54 54 50 48 44 39 32 38 40 38 42 45 44 46 48 49 49
58 58 56 57 51 56 55 49 33 28 40 36 38 44 44 41 45 47 45 43 43 38 40 44 47 52 55 49 52 51 47 36 34 31 31 35 34 42 46 49 52 51 49 49 49
57 57 56 57 57 56 51 40 30 36 36 45 42 43 39 44 44 45 44 42 47 43 44 38 37 46 52 49 45 46 44 34 29 29 32 36 34 44 46 47 50 54 51 49 48
57 54 53 55 57 54 44 33 34 41 44 43 43 38 38 44 44 44 43 43 48 49 42 40 39 46 53 51 52 42 42 44 37 31 31 35 41 48 47 46 45 49 49 48 48
51 47 49 57 57 51 40 36 41 50 48 46 37 42 37 40 41 41 42 49 49 53 50 43 36 47 47 54 51 47 50 39 36 30 28 32 34 40 45 43 44 45 47 47 48
49 43 53 57 55 47 37 38 47 53 51 47 42 40 43 39 42 40 41 47 53 49 49 45 41 41 47 44 44 43 40 39 40 35 31 28 36 43 45 46 46 46 48 47 48
44 41 54 56 45 46 41 47 51 51 51 50 51 49 45 42 43 42 42 46 54 51 46 47 40 37 42 43 46 43 43 42 36 32 31 31 36 46 45 45 48 48 49 49 49
42 48 55 52 42 42 47 48 51 49 49 49 46 50 51 44 41 45 45 50 51 51 48 48 39 33 38 40 41 40 41 41 39 37 31 32 37 48 44 46 48 50 51 50 48
44 43 47 49 47 45 44 45 45 49 48 52 49 50 50 45 46 41 42 48 51 51 52 53 42 39 35 37 42 37 40 40 41 34 33 35 39 43 43 47 48 48 48 49 46
42 46 48 40 43 45 48 46 44 44 49 52 47 50 46 41 41 40 44 46 50 51 49 51 42 40 40 42 43 42 43 41 40 42 39 41 40 43 44 46 46 46 46 46 45
42 42 45 41 46 47 45 44 44 46 48 48 45 47 48 45 44 41 45 44 44 46 46 48 40 41 37 41 41 39 41 41 40 40 38 40 40 44 44 44 44 42 45 46 45
42 46 49 45 44 45 45 46 47 49 49 49 49 48 46 47 47 48 47 47 48 49 45 45 42 40 35 38 37 36 41 39 40 41 43 38 43 45 44 47 45 46 46 47 45
MSLP
1014.42 1014.27 1014.19 1014.13 1014.02 1014.11 1014.06 1013.99 1014.01 1014.17 1014.17 1014.44 1014.51 1014.91 1015.16 1015.49 1015.75 1016.05 1016.07 1015.49 1015.09 1014.20 1014.11 1014.19 1014.29 1014.60 1014.73 1014.80 1015.05 1015.73 1016.55 1016.72 1016.23 1015.67 1014.46 1013.58 1013.33 1012.39 1011.78 1011.61 1010.75 1010.07 1009.90 1009.85 1009.82
1014.39 1014.31 1014.26 1014.07 1013.98 1014.07 1014.05 1013.96 1014.00 1014.01 1014.08 1014.41 1014.31 1014.49 1015.09 1015.49 1015.88 1015.58 1015.08 1014.78 1014.66 1014.31 1014.54 1014.47 1014.43 1014.77 1015.05 1015.03 1015.24 1015.68 1016.27 1015.92 1014.95 1014.45 1014.02 1013.49 1013.39 1012.76 1012.23 1011.61 1010.73 1010.08 1009.77 1009.80 1009.91
1014.31 1014.25 1014.07 1013.88 1013.84 1013.83 1013.87 1013.82 1013.80 1013.88 1014.05 1014.33 1014.35 1014.61 1015.04 1015.51 1015.74 1014.20 1013.63 1013.74 1014.05 1014.15 1014.54 1014.63 1014.39 1014.68 1015.23 1015.11 1015.23 1015.36 1015.55 1014.95 1014.28 1013.81 1013.69 1013.44 1013.03 1012.63 1012.48 1011.68 1010.91 1010.40 1010.02 1009.93 1010.23
1014.17 1014.15 1013.90 1013.85 1013.73 1013.69 1013.76 1013.75 1013.70 1013.79 1013.90 1014.05 1014.41 1014.78 1015.18 1015.55 1015.16 1013.27 1012.38 1012.68 1013.15 1013.90 1014.35 1014.34 1014.37 1014.70 1014.94 1015.06 1014.77 1015.05 1014.68 1014.41 1013.86 1013.45 1013.48 1013.28 1013.01 1012.75 1012.21 1011.27 1010.33 1010.35 1010.30 1010.18 1010.36
1013.91 1013.81 1013.70 1013.69 1013.58 1013.59 1013.58 1013.54 1013.48 1013.68 1013.78 1013.94 1014.19 1014.66 1015.49 1015.33 1013.84 1012.93 1012.90 1012.99 1012.94 1013.86 1013.92 1013.97 1014.00 1014.23 1014.40 1014.40 1014.58 1014.65 1014.31 1013.90 1013.47 1013.44 1013.55 1013.23 1012.88 1012.66 1011.53 1010.81 1010.31 1010.39 1010.29 1010.33 1010.43
1013.68 1013.49 1013.44 1013.38 1013.33 1013.40 1013.42 1013.41 1013.28 1013.38 1013.45 1013.79 1014.21 1014.65 1015.40 1014.67 1012.99 1012.87 1013.12 1013.30 1013.23 1013.59 1013.57 1013.49 1013.29 1013.34 1013.78 1013.87 1014.02 1013.82 1013.81 1013.62 1013.55 1013.30 1013.20 1012.98 1012.15 1012.23 1010.81 1010.48 1010.36 1010.32 1010.39 1010.30 1010.36
1013.21 1013.15 1012.98 1013.02 1013.11 1013.21 1013.15 1013.20 1013.23 1013.35 1013.40 1013.62 1013.99 1014.51 1014.56 1012.69 1012.80 1012.91 1013.04 1012.95 1013.12 1013.19 1013.15 1013.00 1012.98 1012.88 1012.89 1013.44 1013.34 1013.58 1013.88 1013.75 1013.41 1013.03 1012.73 1012.48 1011.68 1011.17 1010.07 1010.43 1010.53 1010.59 1010.56 1010.41 1010.55
1012.74 1012.72 1012.64 1012.66 1012.72 1012.78 1012.85 1012.82 1012.94 1013.06 1013.30 1013.46 1013.81 1014.48 1013.40 1012.43 1012.71 1013.23 1013.22 1012.83 1012.68 1012.85 1013.28 1012.66 1012.42 1012.71 1012.89 1012.73 1013.17 1013.77 1014.13 1014.04 1013.23 1012.89 1012.39 1012.57 1010.79 1010.32 1009.83 1010.23 1010.58 1010.89 1011.22 1011.10 1011.25
1012.31 1012.30 1012.29 1012.31 1012.27 1012.28 1012.49 1012.67 1012.83 1013.06 1013.24 1013.64 1014.15 1014.26 1013.13 1012.14 1012.41 1012.59 1013.03 1013.26 1012.80 1012.80 1013.05 1012.70 1012.82 1012.72 1012.62 1012.76 1013.50 1013.79 1013.99 1014.07 1013.64 1012.70 1012.74 1012.79 1011.64 1010.14 1010.12 1010.11 1010.73 1011.20 1011.79 1011.80 1011.63
1011.85 1011.88 1011.87 1011.85 1011.72 1011.75 1011.89 1012.39 1012.58 1013.20 1013.57 1013.89 1014.10 1014.59 1013.09 1011.95 1011.96 1012.06 1012.40 1013.01 1012.99 1012.97 1013.39 1012.80 1012.87 1012.72 1012.67 1013.00 1013.14 1013.61 1013.99 1013.92 1013.75 1013.06 1012.90 1012.67 1011.98 1010.61 1010.36 1010.46 1010.82 1011.49 1012.07 1012.25 1012.21
1011.37 1011.35 1011.38 1011.38 1011.18 1010.93 1011.29 1012.17 1013.16 1013.50 1013.14 1012.57 1012.59 1012.39 1011.74 1011.59 1011.50 1011.80 1011.94 1012.72 1012.81 1012.67 1012.38 1012.15 1012.16 1011.58 1012.25 1012.46 1013.08 1013.32 1013.86 1013.95 1013.35 1013.13 1013.15 1012.58 1012.17 1010.96 1010.35 1010.60 1010.89 1011.70 1012.39 1012.69 1012.68
1010.85 1010.93 1010.95 1010.83 1010.48 1010.21 1010.76 1011.27 1011.13 1011.14 1012.26 1012.20 1012.00 1012.15 1011.58 1011.66 1011.56 1011.36 1011.47 1012.25 1012.04 1011.99 1012.40 1011.97 1011.25 1011.53 1012.31 1012.78 1013.16 1013.39 1013.77 1013.88 1013.44 1013.21 1013.28 1012.67 1012.11 1010.94 1010.54 1010.47 1010.77 1011.78 1012.61 1012.94 1012.89
1010.47 1010.47 1010.51 1010.29 1009.85 1009.69 1009.88 1010.27 1010.63 1010.81 1011.49 1011.44 1011.39 1011.29 1011.29 1011.66 1011.21 1010.89 1011.11 1011.32 1011.67 1011.94 1011.52 1011.07 1010.94 1011.60 1012.27 1012.75 1013.20 1013.49 1013.78 1013.82 1013.87 1013.45 1013.11 1013.06 1011.92 1011.22 1010.63 1010.72 1011.20 1011.97 1012.63 1013.13 1013.23
1009.90 1009.91 1010.09 1009.86 1009.98 1009.65 1009.72 1010.30 1010.77 1011.02 1011.84 1010.97 1010.85 1010.15 1010.47 1011.06 1010.74 1010.14 1010.42 1010.61 1011.10 1011.24 1011.56 1011.40 1011.31 1011.29 1011.71 1012.44 1012.89 1013.50 1013.49 1013.71 1014.01 1014.57 1014.44 1013.91 1013.16 1011.98 1011.01 1011.20 1011.65 1012.23 1012.88 1013.29 1013.60
1009.59 1009.50 1009.61 1009.64 1009.55 1009.32 1009.19 1009.90 1010.75 1011.76 1010.75 1009.77 1009.75 1008.89 1009.24 1010.63 1009.72 1009.95 1009.71 1010.18 1010.46 1010.33 1010.98 1010.99 1011.02 1011.26 1011.40 1011.75 1012.69 1013.06 1013.13 1013.71 1014.17 1014.84 1014.92 1014.52 1014.65 1011.51 1011.33 1011.57 1011.95 1012.42 1013.05 1013.61 1013.85
1009.13 1009.09 1009.24 1009.30 1009.25 1009.08 1008.89 1009.85 1011.00 1011.07 1009.43 1009.19 1008.65 1008.89 1009.72 1010.04 1009.57 1009.81 1010.03 1010.26 1010.05 1010.50 1010.88 1010.72 1010.61 1010.77 1011.32 1011.78 1012.26 1012.81 1013.59 1014.18 1014.75 1015.22 1015.17 1014.17 1014.18 1011.90 1011.27 1010.94 1011.57 1012.33 1012.99 1013.75 1014.03
1008.46 1008.68 1008.89 1008.58 1008.45 1008.81 1009.36 1009.85 1010.52 1009.76 1009.11 1008.54 1008.38 1008.46 1008.86 1009.28 1009.55 1009.32 1009.85 1010.12 1009.31 1010.06 1010.81 1011.00 1010.91 1010.84 1010.71 1011.78 1012.38 1012.94 1013.69 1014.84 1015.30 1015.61 1014.81 1014.05 1014.12 1011.51 1010.25 1010.35 1010.59 1011.69 1012.77 1013.63 1014.19
1007.79 1007.99 1007.95 1008.03 1007.99 1008.33 1009.33 1009.66 1009.15 1007.47 1007.43 1007.12 1007.61 1008.14 1008.48 1008.61 1009.02 1009.37 1009.53 1009.54 1009.29 1008.72 1009.82 1010.59 1011.43 1010.66 1010.24 1010.67 1011.94 1012.97 1013.39 1014.06 1014.64 1015.20 1014.70 1014.23 1012.96 1010.37 1009.97 1010.10 1010.34 1010.83 1012.04 1013.51 1014.32
1007.20 1007.05 1007.05 1007.05 1007.60 1008.17 1009.15 1008.72 1007.02 1005.53 1005.74 1006.09 1007.25 1007.61 1008.15 1008.08 1008.57 1008.79 1009.22 1008.85 1008.57 1008.27 1008.70 1010.28 1010.44 1010.18 1009.78 1010.22 1011.33 1012.76 1012.85 1013.13 1014.08 1014.98 1014.89 1013.47 1011.88 1009.99 1009.80 1010.03 1010.51 1011.14 1012.33 1013.51 1014.11
1006.86 1006.82 1006.49 1006.38 1007.11 1007.91 1008.23 1006.99 1004.92 1003.93 1004.67 1005.51 1005.76 1006.64 1007.10 1007.66 1007.92 1008.38 1008.45 1007.64 1007.53 1007.81 1007.69 1008.92 1010.16 1010.22 1010.31 1010.41 1011.33 1011.42 1012.10 1013.24 1014.05 1014.78 1014.67 1013.35 1012.33 1010.76 1010.14 1010.43 1011.12 1011.83 1012.49 1013.44 1013.98
1006.65 1006.53 1006.11 1006.06 1006.96 1007.30 1006.61 1005.78 1003.87 1003.60 1003.77 1004.20 1004.71 1005.65 1006.14 1006.82 1007.28 1007.69 1007.87 1007.58 1006.90 1007.48 1007.34 1008.18 1009.11 1010.80 1010.60 1010.61 1011.24 1011.74 1012.01 1012.95 1013.48 1014.36 1014.44 1014.01 1011.91 1010.60 1010.49 1010.45 1011.01 1011.92 1012.62 1013.27 1013.84
1006.39 1006.41 1006.29 1006.47 1006.59 1005.86 1005.17 1003.63 1003.28 1003.36 1003.28 1003.29 1003.67 1004.60 1005.24 1006.27 1006.77 1007.07 1007.04 1006.46 1006.08 1006.42 1007.30 1007.66 1008.84 1010.55 1010.54 1010.47 1010.59 1010.78 1011.42 1012.15 1013.16 1014.37 1014.60 1014.02 1011.73 1010.38 1010.33 1010.18 1010.85 1011.94 1012.65 1013.17 1013.63
1006.30 1006.19 1006.32 1006.30 1005.34 1004.71 1003.97 1003.40 1003.14 1003.22 1003.08 1003.28 1003.42 1003.81 1004.39 1005.36 1006.10 1006.54 1006.57 1006.04 1005.88 1006.06 1006.43 1007.37 1008.55 1010.26 1011.01 1011.13 1010.81 1010.82 1011.31 1011.85 1012.66 1013.37 1013.83 1013.69 1011.67 1010.45 1010.29 1010.46 1010.93 1011.61 1012.31 1012.79 1013.70
1006.23 1006.00 1006.17 1005.95 1005.04 1004.41 1003.83 1003.63 1003.28 1003.26 1003.22 1002.94 1002.99 1003.35 1003.95 1004.72 1004.90 1006.00 1006.67 1006.07 1005.91 1006.00 1006.22 1006.70 1008.00 1008.67 1009.29 1009.32 1009.98 1010.87 1011.07 1011.63 1012.06 1013.21 1013.21 1012.44 1011.39 1010.69 1010.74 1010.78 1011.04 1011.50 1011.96 1012.70 1013.65
1005.84 1004.85 1004.49 1004.87 1004.36 1003.89 1003.48 1003.26 1003.18 1003.08 1003.03 1002.52 1002.93 1003.16 1003.47 1004.40 1004.90 1005.68 1006.14 1006.18 1006.38 1006.52 1006.96 1007.31 1008.03 1008.61 1009.01 1009.07 1009.26 1009.63 1010.20 1010.93 1011.57 1011.55 1011.96 1011.44 1011.37 1010.77 1010.65 1010.82 1011.09 1011.49 1012.06 1012.82 1013.74
1005.20 1004.64 1004.54 1004.06 1003.45 1003.42 1003.37 1003.14 1002.96 1002.80 1002.68 1002.63 1002.88 1003.37 1003.32 1003.90 1004.20 1004.96 1005.31 1005.72 1006.07 1006.95 1007.08 1007.39 1008.39 1008.48 1009.38 1009.30 1009.39 1009.72 1009.99 1010.46 1010.95 1011.06 1011.13 1011.12 1011.09 1010.61 1010.72 1010.92 1011.26 1011.57 1011.97 1012.85 1013.77
1004.59 1004.20 1003.87 1003.97 1003.60 1003.54 1003.02 1002.86 1002.92 1002.94 1003.19 1002.86 1002.89 1003.54 1003.88 1004.05 1004.27 1004.53 1005.04 1005.37 1005.73 1006.47 1007.30 1007.91 1008.26 1009.08 1009.89 1009.73 1009.76 1009.95 1009.26 1009.78 1010.22 1010.30 1010.43 1010.82 1010.58 1010.64 1011.14 1011.41 1011.60 1011.92 1012.25 1012.89 1013.68
Wind_Speed
9 9 9 8 8 9 9 10 10 10 10 12 12 10 11 7 3 2 7 9 9 19 8 4 5 3 1 0 3 4 3 3 5 5 5 3 7 4 3 5 6 3 3 4 5
10 11 10 9 9 10 10 10 10 10 11 12 9 9 8 3 1 8 9 15 18 18 6 3 6 7 2 3 2 4 4 8 6 5 4 5 2 6 6 7 5 4 4 2 3
10 10 11 10 11 10 10 11 10 10 10 11 9 9 7 5 4 7 21 27 21 19 7 4 3 7 5 3 4 5 6 5 5 7 3 4 7 3 4 7 7 9 9 5 1
10 11 9 10 10 10 9 9 10 10 9 9 10 9 8 4 8 2 3 21 26 13 11 5 5 8 6 7 5 3 7 5 4 2 2 4 5 8 7 11 10 9 6 5 7
10 11 10 10 9 9 9 9 8 10 10 10 11 9 4 6 10 4 10 12 13 11 14 10 6 7 8 7 5 4 4 3 7 8 7 4 9 8 10 13 7 9 9 10 8
12 11 10 9 10 10 10 9 9 11 11 11 10 10 2 14 3 11 9 6 2 12 14 10 8 6 6 6 11 6 7 8 5 10 6 6 10 4 6 5 10 8 11 8 7
13 11 11 9 9 11 12 11 9 10 11 10 11 5 7 16 3 5 6 7 4 13 14 11 7 6 6 3 5 3 3 7 6 5 8 6 13 12 12 2 9 10 10 4 6
13 10 9 10 11 13 13 13 10 9 10 11 10 2 8 4 13 14 6 6 4 8 15 6 10 2 3 2 5 6 2 3 4 2 4 6 19 12 8 5 7 8 7 5 7
13 9 10 11 12 15 12 11 12 9 9 6 2 3 6 3 9 8 8 5 2 5 3 9 4 4 3 5 4 3 4 6 8 5 4 4 9 8 2 5 5 3 4 4 7
13 12 12 14 14 13 16 10 7 4 2 2 1 2 6 4 4 7 7 8 3 9 7 8 5 5 4 5 7 6 4 3 6 3 2 5 14 17 4 1 3 5 3 5 7
13 13 12 14 17 17 12 5 5 1 5 8 9 4 2 6 5 7 6 7 4 5 13 9 10 12 13 13 4 6 4 6 5 4 2 7 8 15 8 5 4 5 4 4 7
13 13 11 16 18 11 11 6 6 4 5 14 3 14 8 2 4 8 14 9 7 9 14 9 16 14 7 7 4 3 3 5 7 1 3 7 10 12 7 6 4 8 5 4 5
11 9 11 15 11 6 11 13 5 3 2 6 11 5 5 8 7 13 18 6 5 13 20 11 4 15 13 6 9 3 5 4 6 7 4 6 8 6 2 2 6 6 4 3 6
10 8 10 14 3 4 5 10 5 7 5 7 10 8 9 2 6 14 15 10 5 17 20 6 5 13 16 11 6 9 6 3 3 4 4 5 8 7 5 4 6 7 6 6 6
11 11 8 9 4 4 2 13 8 2 1 11 9 4 11 8 5 14 16 9 9 9 9 7 14 11 15 17 10 4 6 6 2 3 3 1 3 9 2 5 6 7 6 5 6
12 11 7 4 3 2 9 13 5 3 6 10 9 10 11 11 4 9 9 1 2 8 3 3 5 10 8 4 11 7 6 2 3 2 3 7 8 7 4 7 4 4 6 7 6
12 10 5 3 4 8 9 5 3 5 3 7 7 11 13 8 10 11 16 16 9 13 15 1 4 3 6 7 4 5 7 2 1 1 7 1 2 10 4 5 9 13 10 8 6
12 11 6 7 10 14 2 2 6 3 9 6 7 12 7 10 9 13 13 12 12 1 13 8 6 8 6 7 7 7 8 6 6 5 4 2 7 7 3 6 7 9 10 8 7
11 4 3 8 12 9 6 3 5 6 8 12 12 8 4 10 2 10 17 11 13 11 10 8 5 2 5 5 13 7 9 4 5 2 1 4 8 9 4 6 3 10 11 9 8
2 2 3 14 14 8 3 5 8 6 12 15 8 5 10 15 8 5 8 9 12 11 7 7 6 0 2 6 3 8 9 3 3 3 4 5 5 6 6 2 3 8 10 8 6
2 1 4 15 7 6 3 7 5 13 10 7 6 7 7 9 5 4 8 3 10 9 4 6 5 2 6 6 8 3 4 4 5 4 4 2 7 5 5 4 8 7 6 8 8
2 1 3 7 6 3 6 5 6 11 1 2 4 6 9 8 6 6 8 6 9 8 9 4 7 7 3 1 5 4 8 6 6 4 1 3 8 2 5 4 7 6 6 7 7
3 3 3 3 3 2 3 1 3 3 1 3 3 5 9 6 6 4 5 3 7 7 9 8 2 6 2 1 3 4 4 5 5 4 7 7 7 3 6 6 6 8 8 7 6
2 3 3 3 2 3 3 4 3 1 3 5 5 7 10 4 2 7 7 1 3 4 5 7 4 7 10 4 7 5 5 5 7 4 5 7 5 3 3 5 4 4 3 6 7
2 4 4 4 5 5 4 6 4 5 8 3 3 14 7 6 4 6 3 5 4 5 4 4 5 4 3 4 4 7 9 11 10 9 8 6 9 3 2 4 4 3 2 5 6
3 3 1 1 1 5 4 5 4 3 5 1 7 4 4 5 4 9 8 4 6 3 3 3 3 4 2 3 3 2 4 8 4 4 2 5 4 2 2 3 3 2 2 4 6
1 2 2 0 2 3 3 5 5 5 3 4 7 7 10 1 1 5 6 7 7 8 4 5 6 4 3 2 2 4 9 8 5 4 8 8 6 4 3 5 2 3 2 4 5
Wind_Direction
322 317 307 297 291 285 277 272 266 249 240 242 228 242 227 216 171 197 233 235 222 254 318 295 159 205 70 247 123 130 75 210 237 187 248 292 354 298 273 266 306 276 250 287 316
311 304 296 292 287 275 267 260 259 261 247 239 224 213 227 175 179 232 230 240 252 257 293 268 189 143 212 206 164 126 151 220 213 202 243 298 283 312 334 320 296 309 262 323 76
310 300 292 287 278 277 278 261 252 253 249 245 229 217 201 113 304 249 223 229 236 245 236 303 267 162 189 154 192 174 200 217 255 239 262 266 303 238 272 297 235 285 290 318 245
298 290 290 282 282 275 272 272 259 252 242 240 237 223 188 158 226 66 311 227 217 223 222 215 207 158 175 185 186 171 241 213 279 249 292 275 308 289 212 243 256 274 291 290 255
286 286 288 279 277 270 271 271 256 249 239 235 232 205 155 212 229 262 1 4 218 212 216 205 168 158 182 174 139 200 259 243 249 276 257 275 253 239 260 260 289 292 293 275 272
279 281 273 279 267 269 265 257 250 238 242 233 223 186 175 241 222 262 299 340 267 188 216 208 199 191 158 189 183 202 218 268 287 274 256 248 268 160 251 278 305 303 287 301 293
278 280 281 279 277 274 260 253 244 230 232 231 205 171 214 227 163 65 348 220 208 196 213 207 220 202 133 147 200 191 297 303 265 262 258 184 281 235 250 286 291 323 310 323 16
278 272 276 271 275 266 261 249 243 240 235 230 213 123 243 197 247 273 304 312 218 174 225 274 204 224 191 189 77 140 133 272 281 311 283 141 274 280 260 242 315 332 337 61 56
277 280 280 274 273 267 236 244 239 230 237 239 197 194 265 183 217 216 224 278 190 149 281 256 160 205 161 136 151 165 203 211 304 207 232 180 287 281 21 44 1 315 6 52 59
269 266 281 285 276 265 229 216 229 171 220 87 346 156 267 222 169 171 164 210 247 143 225 209 179 179 171 167 191 169 203 217 233 258 209 258 263 276 267 218 309 179 113 68 60
274 268 279 284 285 275 197 153 104 189 195 200 171 242 315 209 135 180 159 167 234 145 196 191 191 190 185 192 165 152 183 215 255 257 268 278 275 278 278 256 214 175 119 76 70
282 280 269 280 278 259 154 181 185 168 182 229 224 220 250 352 186 182 149 168 177 178 204 188 207 196 142 155 172 143 186 252 282 213 188 306 284 273 267 266 177 161 155 139 89
291 313 300 286 277 213 177 181 120 99 344 201 208 231 235 214 239 180 166 189 130 172 203 197 165 184 165 157 171 192 190 250 237 334 317 328 291 312 336 104 107 122 140 122 116
278 279 277 295 170 140 195 149 123 76 246 183 192 248 170 162 253 165 183 172 166 192 195 227 153 184 172 178 156 222 197 208 284 24 258 39 285 296 266 186 145 141 145 154 135
274 277 266 229 297 185 174 158 132 181 204 153 175 180 143 201 157 174 182 211 164 171 170 177 173 182 174 196 166 216 148 191 220 208 356 292 300 270 153 206 196 183 171 194 160
271 267 282 238 223 89 125 127 132 219 229 182 159 176 146 202 217 136 178 92 183 148 63 202 144 161 161 167 176 153 81 57 54 82 294 227 183 277 206 210 158 168 178 189 160
269 266 238 178 175 134 123 137 132 234 153 153 164 158 166 161 178 158 180 200 166 155 183 192 158 159 140 131 68 106 118 286 288 294 228 78 166 252 227 230 183 179 186 186 173
273 268 223 200 158 133 128 93 227 140 200 144 131 142 167 155 195 166 186 199 234 189 153 157 170 179 172 176 149 184 172 162 198 202 260 114 240 253 227 279 247 165 157 155 172
292 274 207 170 159 138 136 202 244 184 185 148 127 145 191 179 250 170 206 203 196 189 161 160 184 150 154 121 138 198 201 191 102 12 51 237 290 308 0 19 117 149 144 168 174
237 218 206 166 159 149 156 254 231 124 116 146 140 183 184 165 181 164 167 183 164 202 154 191 106 125 139 99 80 173 161 110 8 227 250 288 278 247 337 343 131 154 162 161 167
161 137 0 153 155 182 227 227 260 139 141 162 119 158 179 154 165 125 162 218 191 178 126 136 108 183 135 179 161 162 162 57 121 136 173 303 274 218 271 254 195 183 162 161 173
169 63 151 146 195 186 228 254 178 144 104 129 96 125 146 137 143 154 185 230 178 144 144 178 122 144 159 262 179 163 167 152 144 215 129 144 274 336 284 273 146 145 151 177 188
146 113 163 238 248 197 277 153 104 162 18 143 134 154 139 152 123 140 257 295 152 135 164 174 120 105 87 76 335 191 176 127 115 97 187 150 262 355 45 87 133 148 191 196 165
176 129 157 210 265 260 162 171 210 284 273 211 162 143 146 137 17 137 166 202 122 112 104 94 142 152 188 183 140 176 178 169 142 151 174 219 272 352 49 132 159 136 172 199 169
184 216 179 200 238 226 186 171 210 179 222 177 122 157 161 129 93 120 128 107 53 134 85 134 134 122 44 132 136 179 179 180 193 198 185 215 203 216 160 220 251 300 131 160 170
179 158 162 257 286 156 190 204 198 128 28 84 114 121 96 130 161 171 141 139 173 162 147 100 158 113 75 65 108 187 185 181 192 163 209 135 227 177 96 99 54 9 61 158 172
244 338 150 110 107 175 213 170 173 139 14 25 126 102 69 239 144 87 88 85 128 134 124 144 133 118 176 123 118 294 215 184 179 180 152 192 202 152 87 115 77 16 328 233 201